Location: ?ernice
(48.8383°N, 14.3803°E)
Time: 21:56:31
(UTC+00:00)

Cosmos 1703 Rocket - Pass Details

Date: 23 May 2024
Orbit: 602 x 629 km, 82.5° (Epoch: 20 June)

Event Time Altitude Azimuth Distance (km) Brightness Sun altitude
Exits shadow 00:59:03 28° 209° (SSW) 1,180 4.4 -15.6°
Maximum altitude 01:01:17 63° 282° (WNW) 703 3.7 -15.4°
Drops below altitude 10° 01:05:43 10° 4° (N) 2,015 7.2 -15.0°
Sets 01:07:59 0° 8° (N) 2,930 8.3 -14.8°
